Flag for France Weather past 2 weeks in Paris, France

Now
66 °F

Overcast.


Feels Like: 66 °F
Forecast: 66 / 82 °F
Wind: 12 mph from North

Location: Villacoublay

Current Time: Jul 22, 2014 at 1:59:49 PM

Latest Report: Jul 22, 2014 at 1:30 PM


Visibility: N/A

Pressure: 30.12 "Hg

Humidity: 83%

Dew point: 61 °F

Location of ParisLocation

Historic Weather in Paris — Graph

°F

Paris temperature yesterday

Maximum temperature yesterday: 75 °F (at 5:00 PM)
Minimum temperature yesterday: 59 °F (at 7:00 AM)
Average temperature yesterday: 67 °F

Past Weeks' High & Low Weather Summary

 TemperatureHumidityPressure
High93 °F (Jul 18, 4:00 PM)100% (Jul 8, 3:30 AM)30.18 "Hg (Jul 8, 3:30 AM)
Low54 °F (Jul 9, 2:00 AM)34% (Jul 18, 7:00 PM)29.74 "Hg (Jul 19, 6:00 PM)
Average67 °F75%29.99 "Hg
* Reported Jul 7 1:00 PM — Jul 22 1:00 PM, Paris, Weather by CustomWeather, © 2014

Note: Actual official high and low records may vary slightly from our data, if they occured in-between our weather recording intervals... More about our weather records

Advertising

Paris weather history for previous 24 hours

 ConditionsComfort  
Time TempWeatherWind HumidityBarometerVisibility
1:00 PM
Jul 22
66 °FOvercast.12 mph83%30.12 "HgN/A
12:30 PM66 °FOvercast.12 mph83%30.12 "HgN/A
12:00 PM68 °FOvercast.9 mph78%30.12 "HgN/A
11:30 AM66 °FOvercast.10 mph83%30.12 "HgN/A
11:00 AM66 °FPartly sunny.9 mph83%30.12 "HgN/A
10:30 AM64 °FPartly sunny.10 mph83%30.12 "HgN/A
10:00 AM64 °FMostly cloudy.9 mph83%30.12 "HgN/A
9:30 AM64 °FPartly sunny.9 mph83%30.12 "HgN/A
9:00 AM63 °FPartly sunny.12 mph88%30.12 "HgN/A
8:30 AM63 °FScattered clouds.10 mph83%30.12 "HgN/A
8:00 AM61 °FClear.8 mph88%30.09 "HgN/A
7:30 AM61 °FClear.8 mph88%30.09 "HgN/A
7:00 AM61 °FClear.7 mph88%30.09 "HgN/A
6:30 AM61 °FClear.7 mph88%30.09 "HgN/A
6:00 AM61 °FClear.8 mph88%30.09 "HgN/A
5:30 AM63 °FClear.8 mph83%30.09 "HgN/A
5:00 AM61 °FClear.6 mph88%30.09 "HgN/A
4:30 AM61 °FClear.7 mph88%30.09 "HgN/A
4:00 AM63 °FClear.9 mph88%30.12 "HgN/A
3:30 AM63 °FClear.7 mph88%30.09 "HgN/A
3:00 AM63 °FClear.8 mph88%30.12 "HgN/A
2:30 AM64 °FClear.8 mph83%30.12 "HgN/A
2:00 AM64 °FPassing clouds.9 mph83%30.12 "HgN/A
1:30 AM64 °FClear.10 mph83%30.12 "HgN/A
1:00 AM64 °FPassing clouds.10 mph83%30.12 "HgN/A
12:30 AM66 °FClear.9 mph78%30.12 "HgN/A
12:00 AM66 °FClear.8 mph83%30.12 "HgN/A
11:30 PM
Jul 21
68 °FClear.10 mph78%30.12 "HgN/A
11:00 PM68 °FPassing clouds.10 mph78%30.09 "HgN/A
10:30 PM70 °FBroken clouds.12 mph73%30.09 "HgN/A
10:00 PM70 °FMore clouds than sun.10 mph73%30.09 "HgN/A
9:30 PM70 °FBroken clouds.8 mph73%30.09 "HgN/A
9:00 PM72 °FPartly sunny.10 mph69%30.07 "HgN/A
8:30 PM72 °FPartly sunny.12 mph69%30.07 "HgN/A
8:00 PM73 °FPartly sunny.12 mph61%30.07 "HgN/A
7:30 PM75 °FBroken clouds.14 mph61%30.07 "HgN/A
7:00 PM75 °FBroken clouds.15 mph57%30.07 "HgN/A
6:30 PM75 °FPassing clouds.16 mph57%30.07 "HgN/A
6:00 PM75 °FBroken clouds.15 mph57%30.04 "HgN/A
5:30 PM75 °FBroken clouds.15 mph57%30.04 "HgN/A
5:00 PM75 °FBroken clouds.13 mph61%30.04 "HgN/A
4:30 PM73 °FPartly sunny.15 mph65%30.04 "HgN/A
4:00 PM73 °FPartly sunny.13 mph65%30.04 "HgN/A
3:30 PM73 °FPartly sunny.14 mph69%30.04 "HgN/A
3:00 PM72 °FPartly sunny.16 mph69%30.04 "HgN/A
2:30 PM72 °FPartly sunny.14 mph73%30.04 "HgN/A
2:00 PM72 °FPartly sunny.16 mph73%30.04 "HgN/A
1:30 PM72 °FPartly sunny.13 mph73%30.04 "HgN/A
1:00 PM72 °FPartly sunny.10 mph73%30.04 "HgN/A
Weather by CustomWeather, © 2014

See weather overviewHow to use our weather pages